Location: Sweet Grass
(48.9965°N, 111.9649°W)
Time: 12:38:53
(UTC+00:00)

Envisat - Pass Details

Date: 07 December 2022
Orbit: 763 x 765 km, 98.2° (Epoch: 06 February)

Event Time Altitude Azimuth Distance (km) Brightness Sun altitude
Rises 11:50:23 0° 14° (NNE) 3,246 6.4 -31.3°
Reaches altitude 10° 11:52:42 10° 15° (NNE) 2,315 5.6 -30.9°
Enters shadow 11:54:23 21° 15° (NNE) 1,660 4.8 -30.6°
